{"data":{"norad_id":55111,"epoch":"2026-09-21T18:52:16.313952Z","epoch_age_seconds":57098,"freshness":"FRESH","line1":"1 55111U 23001DG  26264.78629993  .00018269  00000+0  53533-3 0  9999","line2":"2 55111  97.5604   1.1417 0003609 356.7682   3.3537 15.35258829159368","mean_motion":15.35258829,"eccentricity":0.0003609,"inclination_deg":97.5604,"raan_deg":1.1417,"arg_perigee_deg":356.7682,"mean_anomaly_deg":3.3537,"bstar":0.00053533,"rev_number":15936,"period_min":93.795259326921,"perigee_km":457.68387102568,"apogee_km":462.61974788835,"semimajor_km":6838.288809457,"source":"CELESTRAK","updated_at":"2026-09-22T09:00:25.272383Z"}}